Snowfall_Accumulation
0.0 0.0 0.0 0.0 0.0 0.0 0.0 0.0 0.0 0.0 0.0 0.0 0.0 0.0 0.0 0.0 0.0 0.0 0.0 nan nan nan nan nan nan nan nan nan nan nan nan nan nan nan nan nan nan nan
0.0 0.0 0.0 0.0 0.0 0.0 0.0 0.0 0.0 0.0 0.0 0.0 0.0 0.0 0.0 0.0 0.0 0.0 0.0 nan nan nan nan nan nan nan nan nan nan nan nan nan nan nan nan nan nan nan
0.0 0.0 0.0 0.0 0.0 0.0 0.0 0.0 0.0 0.0 0.0 0.0 0.0 0.0 0.0 0.0 0.0 0.0 0.0 0.0 0.0 nan nan nan nan nan nan nan nan nan nan nan nan nan nan nan nan nan
0.0 0.0 0.0 0.0 0.0 0.0 0.0 0.0 0.0 0.0 0.0 0.0 0.0 0.0 0.0 0.0 0.0 0.0 0.0 0.0 0.0 nan nan nan nan nan nan nan nan nan nan nan nan nan nan nan nan nan
0.0 0.0 0.0 0.0 0.0 0.0 0.0 0.0 0.0 0.0 0.0 0.0 0.0 0.0 0.0 0.0 0.0 0.0 0.0 0.0 0.0 nan nan nan nan nan nan nan nan nan nan nan nan nan nan nan nan nan
0.0 0.0 0.0 0.0 0.0 0.0 0.0 0.0 0.0 0.0 0.0 0.0 0.0 0.0 0.0 0.0 0.0 0.0 0.0 0.0 0.0 0.0 nan nan nan nan nan nan nan nan nan nan nan nan nan nan nan nan
0.0 0.0 0.0 nan nan nan 0.0 0.0 0.0 0.0 0.0 0.0 0.0 0.0 0.0 0.0 0.0 0.0 0.0 0.0 0.0 0.0 0.0 0.0 0.0 0.0 0.0 nan nan nan nan nan nan nan nan nan nan nan
0.0 0.0 0.0 0.0 0.0 nan nan nan nan 0.0 0.0 0.0 0.0 0.0 0.0 0.0 0.0 0.0 0.0 0.0 0.0 0.0 0.0 0.0 0.0 0.0 0.0 0.0 nan nan nan nan nan nan nan nan nan nan
0.0 0.0 0.0 0.0 nan 0.0 nan nan nan nan nan 0.0 0.0 0.0 0.0 0.0 0.0 0.0 0.0 0.0 0.0 0.0 0.0 0.0 0.0 0.0 0.0 0.0 nan nan nan nan nan nan nan nan nan nan
0.0 0.0 0.0 0.0 0.0 0.0 0.0 0.0 0.0 0.0 0.0 0.0 0.0 0.0 0.0 0.0 0.0 0.0 0.0 0.0 0.0 0.0 0.0 0.1 0.0 0.0 0.0 0.0 nan nan nan nan nan nan nan nan nan nan
0.0 0.0 0.0 0.0 nan nan 0.0 0.0 0.0 0.0 nan nan nan nan nan nan nan 0.0 0.1 0.2 0.1 0.0 0.0 0.0 0.0 0.0 0.0 0.0 0.0 nan nan nan nan nan nan nan nan nan
0.0 0.0 nan 0.0 nan nan 0.0 0.0 0.0 0.0 0.0 0.0 0.0 0.0 nan nan nan 0.0 0.1 0.5 0.5 0.5 0.1 0.6 0.3 0.4 0.8 0.1 0.0 0.0 0.0 nan nan nan nan nan nan 0.0
0.0 0.0 0.0 nan nan nan nan 0.0 0.0 0.0 0.0 0.0 0.0 0.0 0.0 0.0 0.0 0.0 0.0 0.3 0.9 0.8 0.1 0.7 1.4 0.6 1.1 0.7 0.2 0.1 0.0 0.0 0.0 0.0 nan nan nan 0.0
0.0 0.1 0.0 nan nan nan nan nan nan nan 0.0 0.1 0.3 0.4 0.4 0.5 0.3 0.2 0.0 0.1 0.2 0.2 0.0 0.0 7.1 2.1 3.7 2.4 1.2 0.3 0.1 0.1 0.1 0.0 0.0 nan nan nan
0.0 0.0 nan nan nan nan nan nan nan 0.3 0.5 0.9 0.8 0.9 0.9 0.7 0.4 0.7 0.2 0.2 0.8 0.1 0.0 0.3 1.8 0.7 2.0 4.3 3.3 0.8 0.7 0.3 0.1 0.2 0.2 0.1 0.0 0.0
nan 0.0 nan 0.0 nan nan 0.0 0.0 0.0 0.0 0.5 0.6 0.6 0.5 0.5 1.2 1.2 0.9 2.4 2.1 3.3 1.9 0.1 0.2 0.3 0.3 4.0 1.3 2.1 2.6 0.7 5.0 0.5 0.4 0.3 0.2 0.0 0.0
nan 0.0 0.0 0.0 0.0 0.0 0.0 0.0 0.0 0.0 0.4 0.4 0.7 0.8 0.8 1.3 1.8 1.6 3.3 4.1 7.6 4.7 4.0 2.4 0.5 0.5 1.1 2.0 9.1 2.8 3.1 2.9 0.8 1.2 1.0 0.6 0.8 0.5
0.2 0.2 0.0 0.0 0.1 0.0 0.0 0.1 0.1 0.3 0.5 0.8 1.1 1.2 2.2 3.1 4.1 5.0 4.7 5.8 8.2 4.9 5.2 3.3 4.1 6.6 4.4 2.5 2.8 5.0 2.6 3.7 2.8 2.6 1.5 2.8 1.7 2.0
0.1 0.2 0.2 0.2 0.2 0.3 0.5 0.6 1.0 0.6 0.3 1.9 1.8 2.0 2.6 4.2 5.3 8.1 7.3 6.9 7.2 5.3 4.6 4.9 9.8 13.7 17.4 11.4 1.3 nan 5.7 2.5 2.1 4.2 3.0 4.1 4.5 1.3
0.2 0.3 0.4 0.4 0.5 0.7 0.8 1.4 1.5 1.5 2.0 2.3 2.6 3.2 4.3 6.6 8.9 8.7 6.1 9.2 6.8 8.0 10.1 8.7 11.9 15.2 22.4 18.2 15.0 3.6 nan 3.7 3.5 4.4 3.7 1.4 1.0 nan
0.3 0.4 0.3 0.5 0.8 1.0 1.3 1.8 1.9 3.5 4.9 6.1 4.1 5.0 5.1 7.4 7.4 5.5 5.5 3.9 nan 11.6 14.9 10.4 7.3 nan 9.5 11.1 17.0 5.6 2.2 nan 1.2 6.8 5.3 6.8 4.5 2.7
0.4 0.7 0.6 0.8 1.2 1.6 2.5 3.0 4.3 4.2 4.8 4.6 5.3 6.0 5.2 5.8 8.1 6.9 6.8 11.7 7.6 9.8 12.7 9.1 6.9 9.7 14.1 15.8 13.5 7.7 4.9 1.8 nan nan nan nan 14.0 20.1
0.7 0.7 1.0 1.3 1.6 2.5 3.4 5.4 6.6 6.6 5.5 6.4 6.6 5.7 5.6 10.1 4.1 5.2 7.2 6.9 9.1 13.2 11.1 12.3 9.2 9.3 11.7 13.7 15.6 11.8 8.7 7.9 3.5 3.6 2.7 nan nan nan
Water_Equivalent
0.00 0.00 0.00 0.00 0.00 0.00 0.00 0.00 0.00 0.00 0.00 0.00 0.00 0.00 0.00 0.00 0.00 0.00 0.00 nan nan nan nan nan nan nan nan nan nan nan nan nan nan nan nan nan nan nan
0.00 0.00 0.00 0.00 0.00 0.00 0.00 0.00 0.00 0.00 0.00 0.00 0.00 0.00 0.00 0.00 0.00 0.00 0.00 nan nan nan nan nan nan nan nan nan nan nan nan nan nan nan nan nan nan nan
0.00 0.00 0.00 0.00 0.00 0.00 0.00 0.00 0.00 0.00 0.00 0.00 0.00 0.00 0.00 0.00 0.00 0.00 0.00 0.00 0.00 nan nan nan nan nan nan nan nan nan nan nan nan nan nan nan nan nan
0.00 0.00 0.00 0.00 0.00 0.00 0.00 0.00 0.00 0.00 0.00 0.00 0.00 0.00 0.00 0.00 0.00 0.00 0.00 0.00 0.00 nan nan nan nan nan nan nan nan nan nan nan nan nan nan nan nan nan
0.00 0.00 0.00 0.00 0.00 0.00 0.00 0.00 0.00 0.00 0.00 0.00 0.00 0.00 0.00 0.00 0.00 0.00 0.00 0.00 0.00 nan nan nan nan nan nan nan nan nan nan nan nan nan nan nan nan nan
0.00 0.00 0.00 0.00 0.00 0.00 0.00 0.00 0.00 0.00 0.00 0.00 0.00 0.00 0.00 0.00 0.00 0.00 0.00 0.00 0.00 0.00 nan nan nan nan nan nan nan nan nan nan nan nan nan nan nan nan
0.00 0.00 0.00 nan nan nan 0.00 0.00 0.00 0.00 0.00 0.00 0.00 0.00 0.00 0.00 0.00 0.00 0.00 0.00 0.00 0.00 0.00 0.00 0.00 0.00 0.00 nan nan nan nan nan nan nan nan nan nan nan
0.00 0.00 0.00 0.00 0.00 nan nan nan nan 0.00 0.00 0.00 0.00 0.00 0.00 0.00 0.00 0.00 0.00 0.00 0.01 0.00 0.00 0.00 0.00 0.00 0.00 0.00 nan nan nan nan nan nan nan nan nan nan
0.00 0.00 0.00 0.00 nan 0.00 nan nan nan nan nan 0.00 0.00 0.00 0.00 0.00 0.00 0.00 0.00 0.00 0.00 0.00 0.00 0.00 0.00 0.00 0.00 0.00 nan nan nan nan nan nan nan nan nan nan
0.00 0.00 0.00 0.00 0.00 0.00 0.00 0.00 0.00 0.00 0.00 0.00 0.00 0.00 0.00 0.00 0.00 0.00 0.00 0.00 0.00 0.00 0.00 0.04 0.00 0.00 0.00 0.00 nan nan nan nan nan nan nan nan nan nan
0.00 0.00 0.00 0.00 nan nan 0.00 0.00 0.00 0.00 nan nan nan nan nan nan nan 0.00 0.05 0.09 0.05 0.01 0.00 0.01 0.00 0.01 0.00 0.00 0.00 nan nan nan nan nan nan nan nan nan
0.00 0.00 nan 0.00 nan nan 0.00 0.00 0.00 0.00 0.00 0.00 0.00 0.00 nan nan nan 0.00 0.06 0.20 0.18 0.18 0.03 0.21 0.10 0.12 0.24 0.02 0.00 0.00 0.00 nan nan nan nan nan nan 0.00
0.00 0.00 0.00 nan nan nan nan 0.00 0.00 0.00 0.00 0.00 0.00 0.00 0.00 0.00 0.00 0.00 0.00 0.11 0.33 0.27 0.04 0.25 0.52 0.21 0.36 0.23 0.06 0.03 0.00 0.00 0.00 0.00 nan nan nan 0.00
0.00 0.02 0.00 nan nan nan nan nan nan nan 0.00 0.03 0.12 0.13 0.16 0.17 0.13 0.10 0.01 0.03 0.07 0.09 0.02 0.01 2.75 0.65 1.07 0.60 0.31 0.11 0.06 0.02 0.03 0.01 0.00 nan nan nan
0.00 0.00 nan nan nan nan nan nan nan 0.10 0.14 0.24 0.23 0.28 0.30 0.26 0.15 0.25 0.06 0.07 0.30 0.05 0.00 0.13 0.73 0.25 0.67 1.10 0.79 0.27 0.27 0.11 0.06 0.10 0.06 0.03 0.01 0.00
nan 0.00 nan 0.00 nan nan 0.00 0.00 0.00 0.01 0.13 0.18 0.19 0.16 0.20 0.43 0.44 0.36 0.81 0.74 1.05 0.61 0.03 0.10 0.13 0.14 1.17 0.40 0.66 0.64 0.23 1.17 0.19 0.15 0.13 0.06 0.02 0.00
nan 0.00 0.00 0.00 0.00 0.00 0.00 0.00 0.00 0.00 0.13 0.13 0.21 0.23 0.27 0.43 0.57 0.58 1.06 1.25 1.71 1.11 0.92 0.68 0.14 0.14 0.35 0.57 1.78 0.70 0.81 0.70 0.25 0.43 0.36 0.21 0.24 0.18
0.04 0.03 0.00 0.02 0.03 0.00 0.00 0.01 0.02 0.11 0.16 0.24 0.33 0.36 0.62 0.85 1.10 1.39 1.44 1.49 1.71 1.08 1.12 0.91 1.05 1.35 1.18 0.73 0.92 1.24 0.68 0.89 0.71 0.64 0.41 0.64 0.38 0.41
0.01 0.06 0.06 0.07 0.08 0.11 0.14 0.19 0.31 0.21 0.07 0.58 0.56 0.62 0.79 1.11 1.40 1.79 1.65 1.51 1.39 1.11 1.04 1.22 2.02 2.38 2.45 1.56 0.39 nan 1.41 0.76 0.66 1.04 0.71 0.88 0.92 0.32
0.08 0.11 0.13 0.12 0.14 0.19 0.24 0.40 0.44 0.45 0.56 0.66 0.75 0.93 1.27 1.74 2.01 1.79 1.30 1.59 1.33 1.48 1.72 1.65 2.16 2.62 3.54 2.84 2.19 0.94 nan 1.06 0.91 1.02 0.89 0.42 0.30 nan
0.10 0.13 0.10 0.16 0.22 0.30 0.37 0.50 0.50 0.94 1.33 1.62 1.13 1.38 1.43 1.89 1.68 1.25 1.14 0.83 nan 1.93 2.11 1.48 1.51 nan 2.55 2.26 2.48 1.01 0.63 nan 0.32 1.55 1.29 1.23 0.87 0.61
0.12 0.20 0.18 0.24 0.32 0.46 0.71 0.85 1.16 1.19 1.33 1.23 1.44 1.68 1.44 1.43 1.69 1.32 1.25 1.94 1.29 1.60 1.93 1.78 1.55 2.08 2.64 2.52 1.92 1.01 0.88 0.48 nan nan nan nan 2.53 3.16
0.20 0.21 0.29 0.37 0.47 0.67 0.93 1.38 1.71 1.71 1.47 1.74 1.75 1.48 1.40 1.92 0.90 1.07 1.33 1.24 1.55 2.03 1.71 1.74 1.54 1.66 1.87 2.21 2.23 1.59 1.11 1.11 0.73 0.76 0.73 nan nan nan
SL_Ratio
nan nan nan nan nan nan nan nan nan nan nan nan nan nan nan nan nan nan nan nan nan nan nan nan nan nan nan nan nan nan nan nan nan nan nan nan nan nan
nan nan nan nan nan nan nan nan nan nan nan nan nan nan nan nan nan nan nan nan nan nan nan nan nan nan nan nan nan nan nan nan nan nan nan nan nan nan
nan nan nan nan nan nan nan nan nan nan nan nan nan nan nan nan nan nan nan nan nan nan nan nan nan nan nan nan nan nan nan nan nan nan nan nan nan nan
nan nan nan nan nan nan nan nan nan nan nan nan nan nan nan nan nan nan nan nan nan nan nan nan nan nan nan nan nan nan nan nan nan nan nan nan nan nan
nan nan nan nan nan nan nan nan nan nan nan nan nan 0.0 nan nan nan nan nan nan nan nan nan nan nan nan nan nan nan nan nan nan nan nan nan nan nan nan
nan nan nan nan nan nan nan nan nan nan 10.0 nan nan nan nan nan nan nan nan nan nan nan nan nan nan nan nan nan nan nan nan nan nan nan nan nan nan nan
nan nan nan nan nan nan nan nan nan nan nan nan nan nan nan nan nan nan nan nan nan nan nan nan nan nan nan nan nan nan nan nan nan nan nan nan nan nan
nan nan nan nan nan nan nan nan nan nan nan nan nan nan nan nan nan nan nan nan 3.0 nan nan nan nan nan nan nan nan nan nan nan nan nan nan nan nan nan
10.0 nan nan nan nan nan nan nan nan nan nan nan nan nan nan nan nan nan nan nan nan nan nan nan nan nan nan nan nan nan nan nan nan nan nan nan nan nan
nan nan nan nan nan nan nan nan nan nan nan nan nan nan nan nan nan nan 10.0 nan nan nan nan 2.5 nan nan nan nan nan nan nan nan nan nan nan nan nan nan
nan nan nan nan nan nan nan nan nan nan nan nan nan nan nan nan nan nan 2.5 2.5 2.5 2.5 nan 2.7 nan 2.3 nan nan nan nan nan nan nan nan nan nan nan nan
5.0 nan nan nan nan nan nan nan 6.7 nan nan nan nan nan nan nan nan nan 2.5 2.6 2.8 3.0 2.5 2.7 2.6 3.2 3.1 2.4 1.7 nan nan nan nan nan nan nan nan nan
nan nan nan nan nan nan nan nan 5.0 nan nan nan nan nan nan nan nan 2.7 nan 2.5 2.7 3.0 2.4 2.9 2.7 2.8 3.1 3.0 2.6 2.5 nan nan nan nan nan nan nan nan
nan 2.5 2.7 nan nan nan nan nan nan nan 2.9 2.6 2.5 2.7 2.6 2.8 2.5 2.5 2.6 2.5 2.5 2.6 2.8 3.8 2.6 3.2 3.5 4.0 3.7 2.5 2.5 2.6 2.5 2.5 nan nan nan nan
nan nan nan nan nan nan nan nan nan 2.8 3.2 3.6 3.5 3.2 3.1 2.7 2.7 2.8 2.8 2.9 2.5 2.6 2.5 2.5 2.5 2.7 2.9 3.9 4.2 3.1 2.7 2.5 2.4 2.5 2.5 2.5 2.6 nan
nan nan nan nan nan nan nan nan nan 3.1 3.4 3.4 3.3 2.9 2.7 2.8 2.9 2.6 3.0 2.8 3.2 3.1 2.5 2.5 2.6 2.5 3.4 3.3 3.3 4.1 3.1 4.3 2.5 2.5 2.5 2.5 2.5 nan
nan 10.0 nan nan nan nan nan nan nan 3.8 2.9 3.1 3.4 3.3 3.1 3.0 3.2 2.7 3.1 3.2 4.4 4.3 4.3 3.5 3.3 3.3 3.0 3.5 5.1 4.0 3.8 4.1 3.1 2.8 2.7 3.0 3.3 2.9
5.4 5.7 5.0 2.5 2.5 nan 4.6 4.2 3.5 2.8 3.2 3.1 3.3 3.3 3.6 3.6 3.7 3.6 3.3 3.9 4.8 4.5 4.6 3.7 3.9 4.9 3.7 3.4 3.1 4.1 3.9 4.2 3.9 4.0 3.7 4.5 4.3 5.0
5.5 2.6 2.5 2.5 2.6 3.1 3.5 3.3 3.4 3.0 3.4 3.2 3.3 3.2 3.3 3.8 3.8 4.5 4.4 4.6 5.1 4.8 4.4 4.0 4.8 5.8 7.1 7.4 3.3 nan 4.1 3.3 3.2 4.0 4.2 4.7 4.9 4.1
2.6 2.9 3.1 3.1 3.3 3.4 3.4 3.5 3.4 3.4 3.5 3.4 3.5 3.5 3.4 3.8 4.4 4.9 4.7 5.8 5.1 5.4 5.8 5.2 5.5 5.8 6.3 6.4 6.8 3.8 nan 3.5 3.8 4.3 4.2 3.4 3.3 nan
2.6 2.8 2.7 3.2 3.5 3.4 3.5 3.5 3.7 3.7 3.7 3.8 3.6 3.6 3.6 3.9 4.4 4.4 4.8 4.8 nan 6.0 7.0 7.0 4.8 nan 3.7 4.9 6.9 5.6 3.6 nan 3.8 4.4 4.1 5.5 5.2 4.4
3.1 3.8 3.4 3.4 3.6 3.5 3.5 3.6 3.7 3.5 3.6 3.8 3.7 3.6 3.6 4.0 4.8 5.2 5.5 6.0 5.9 6.2 6.6 5.1 4.4 4.7 5.3 6.2 7.0 7.6 5.6 3.8 nan nan nan nan 5.6 6.4
3.3 3.5 3.5 3.4 3.4 3.7 3.7 3.9 3.9 3.9 3.8 3.7 3.8 3.8 4.0 5.3 4.5 4.9 5.4 5.6 5.8 6.5 6.5 7.1 5.9 5.6 6.2 6.2 7.0 7.4 7.9 7.1 4.8 4.7 3.7 nan nan nan